User: anonymous   Login
Location: Morlupo
(42.1333°N, 12.5000°E)
Time: 23:39:29
(UTC+00:00)
Language:

Okean-O - Orbit

View from above orbital plane
View from above orbital plane
View from above satellite
View from above satellite

Ground track
Ground track

The orbit data is extracted from the following two-line orbital elements,

1 25860U 99039A   20336.81156491  .00000142  00000-0  27889-4 0  9995
2 25860  98.2029 358.6330 0001787  80.8629 279.2783 14.76694770150305
Epoch (UTC): 01 December 2020 19:28:39
Eccentricity: 0.0001787
inclination: 98.2029°
perigee height: 638 km
apogee height: 641 km
right ascension of ascending node: 358.6330°
argument of perigee: 80.8629°
revolutions per day: 14.76694770
mean anomaly at epoch: 279.2783°
orbit number at epoch: 15030

The dashed part of the orbit path shows where the satellite is in the earth's shadow,  

DLR